TimeEST,TemperatureF,Dew PointF,Humidity,Sea Level PressureIn,VisibilityMPH,Wind Direction,Wind SpeedMPH,Gust SpeedMPH,PrecipitationIn,Events,Conditions,WindDirDegrees,DateUTC
12:53 AM,60.1,55.9,86,30.14,10.0,NE,6.9,-,N/A,,Partly Cloudy,50,2012-11-19 05:53:00
1:53 AM,59.0,54.0,83,30.13,10.0,NE,4.6,-,N/A,,Partly Cloudy,50,2012-11-19 06:53:00
2:53 AM,57.9,54.0,87,30.12,10.0,NNE,5.8,-,N/A,,Clear,20,2012-11-19 07:53:00
3:53 AM,57.0,53.1,87,30.13,10.0,NNE,5.8,-,N/A,,Clear,20,2012-11-19 08:53:00
4:53 AM,57.0,53.1,87,30.13,10.0,NNE,8.1,-,N/A,,Clear,20,2012-11-19 09:53:00
5:53 AM,55.9,53.1,90,30.14,10.0,NNE,5.8,-,N/A,,Clear,20,2012-11-19 10:53:00
6:53 AM,55.0,53.1,93,30.14,9.0,North,5.8,-,N/A,,Clear,10,2012-11-19 11:53:00
7:53 AM,57.9,53.1,84,30.15,10.0,North,5.8,-,N/A,,Clear,10,2012-11-19 12:53:00
8:53 AM,61.0,54.0,78,30.15,10.0,NNE,9.2,-,N/A,,Clear,20,2012-11-19 13:53:00
9:53 AM,64.0,52.0,65,30.15,10.0,NNE,11.5,-,N/A,,Clear,20,2012-11-19 14:53:00
10:53 AM,68.0,53.1,59,30.15,10.0,NNE,11.5,-,N/A,,Clear,20,2012-11-19 15:53:00
11:53 AM,72.0,52.0,49,30.12,10.0,NNE,9.2,-,N/A,,Clear,20,2012-11-19 16:53:00
12:53 PM,73.9,54.0,50,30.08,10.0,NNE,8.1,-,N/A,,Clear,20,2012-11-19 17:53:00
1:53 PM,73.9,52.0,46,30.05,10.0,North,10.4,-,N/A,,Clear,10,2012-11-19 18:53:00
2:53 PM,75.0,53.1,46,30.04,10.0,North,10.4,-,N/A,,Clear,360,2012-11-19 19:53:00
3:53 PM,73.9,54.0,50,30.04,10.0,NNE,8.1,-,N/A,,Clear,30,2012-11-19 20:53:00
4:53 PM,70.0,55.9,61,30.05,10.0,NNE,9.2,-,N/A,,Clear,20,2012-11-19 21:53:00
5:53 PM,64.9,55.0,70,30.06,10.0,NE,10.4,-,N/A,,Clear,40,2012-11-19 22:53:00
6:53 PM,61.0,54.0,78,30.08,10.0,NNE,6.9,-,N/A,,Clear,20,2012-11-19 23:53:00
7:33 PM,60.8,53.6,77,30.09,10.0,NE,5.8,-,N/A,,Mostly Cloudy,40,2012-11-20 00:33:00
7:53 PM,60.1,54.0,80,30.09,10.0,NNE,6.9,-,N/A,,Overcast,30,2012-11-20 00:53:00
8:53 PM,60.1,54.0,80,30.09,10.0,NE,10.4,-,N/A,,Overcast,40,2012-11-20 01:53:00
9:53 PM,59.0,53.6,82,30.10,9.0,NE,8.1,-,N/A,,Overcast,40,2012-11-20 02:53:00
10:53 PM,59.0,54.0,83,30.09,8.0,NE,6.9,-,N/A,,Overcast,40,2012-11-20 03:53:00
11:53 PM,59.0,53.1,81,30.08,9.0,Variable,4.6,-,N/A,,Overcast,0,2012-11-20 04:53:00